Location: Goettingen
(51.5300°N, 9.9433°E)
Time: 08:57:44
(UTC+02:00)

ISS - Pass Details

Date: 16 March 2018
Orbit: 403 x 408 km, 51.6° (Epoch: 24 June)

Event Time Altitude Azimuth Distance (km) Brightness Sun altitude
Exits shadow 03:49:43 22° 105° (ESE) 954 -1.6 -25.0°
Drops below altitude 10° 03:51:02 10° 104° (ESE) 1,479 -0.4 -24.8°
Enters shadow 04:49:19 -64° 295° (WNW) 11,925 3.6 -16.6°
